Regional Weather Roundup
Issued by NWS

Home | Current Version | Previous Version | Text Only | Print | Product List | Glossary On
Versions: 1 2 3 4 5 6 7 8 9 10 11 12 13 14 15 16 17 18 19 20 21 22 23 24 25 26 27 28 29 30 31 32 33 34 35 36 37 38 39 40 41 42 43 44 45 46 47 48 49 50
000
ASUS43 KLSX 150207
RWRMO

WEATHER SUMMARY FOR MISSOURI
NATIONAL WEATHER SERVICE SPRINGFIELD MO
900 PM CDT FRI MAY 14 2021

NOTE: "FAIR" INDICATES FEW OR NO CLOUDS BELOW 12,000 FEET WITH NO
       SIGNIFICANT WEATHER AND/OR OBSTRUCTIONS TO VISIBILITY.
       CURRENT SKY AND/OR WEATHER CONDITIONS ARE NOT AVAILABLE FOR
       CHILLICOTHE AND FARMINGTON.

MOZ001>031-035>038-043-044-053-054-150300-
...NORTHERN AND WESTERN MISSOURI...

CITY           SKY/WX    TMP DP  RH WIND       PRES   REMARKS
KANSAS CTY INT MOCLDY    68  48  48 SW12      30.10S
KANSAS C DTWN  CLOUDY    68  48  48 S12       30.10R
LEE`S SUMMIT   CLOUDY    66  50  56 S10       30.12S
ST JOSEPH      MOCLDY    67  51  56 S10       30.09R
CHILLICOTHE      N/A     66  48  52 CALM      30.12S
KIRKSVILLE     CLOUDY    62  46  55 SE9       30.14S

$$
MOZ066>068-077>081-088>096-101>105-150300-
...SOUTHWEST MISSOURI...

CITY           SKY/WX    TMP DP  RH WIND       PRES   REMARKS
SPRINGFIELD    MOCLDY    61  45  55 SE5       30.16R
JOPLIN         LGT RAIN  62  50  64 S7        30.13S
BRANSON        MOCLDY    59  45  58 SE7       30.18S

$$
MOZ032>034-039>042-045>050-055>058-069>072-150300-
...CENTRAL MISSOURI...

CITY           SKY/WX    TMP DP  RH WIND       PRES   REMARKS
COLUMBIA       CLOUDY    67  44  43 SE5       30.16S
JEFFERSON CITY CLOUDY    69  42  37 E3        30.16S
ROLLA          CLEAR     58  42  55 S5        30.19R
SEDALIA        CLOUDY    64  52  64 S7        30.15F
WHITEMAN AFB   PTCLDY    63  49  62 SE7       30.09F
WARRENSBURG    CLEAR     63  50  63 SE3       30.13S
OSAGE BEACH    CLEAR     65  44  46 SE3       30.18R

$$
MOZ051-052-059>065-150300-
...EAST CENTRAL MISSOURI...

CITY           SKY/WX    TMP DP  RH WIND       PRES   REMARKS
ST LOUIS INTL  PTCLDY    65  33  30 SE9       30.21S
SPIRIT OF STL  CLEAR     57  39  51 CALM      30.19S
ST CHARLES     CLEAR     63  35  35 SE8       30.19S

$$
MOZ072>076-082>087-097>100-106>115-150300-
...SOUTH CENTRAL AND SOUTHEAST MISSOURI...

CITY           SKY/WX    TMP DP  RH WIND       PRES   REMARKS
CAPE GIRARDEAU PTCLDY    55  45  68 SE5       30.22S
FARMINGTON     CLEAR     58  37  45 CALM      30.23R
POPLAR BLUFF   MOCLDY    58  49  72 CALM      30.22S
WEST PLAINS    MOCLDY    61  42  49 SE3       30.21S

$$



USA.gov is the U.S. government's official web portal to all federal, state and local government web resources and services.